Погода Северо-Курильск

Погода Северо-Курильск : погода сейчас, прогноз погоды и архив. Всё, что Вы хотите узнать о погоде Северо-Курильск!

Хотите узнать прогноз погоды Северо-Курильск? Тогда Вам сюда: Погода Северо-Курильск

Поиск расширенной информации на нашем сайте:

Другие новости

Новости СМИ2

Главная страница сайта

Новости сайта

03.07.2017

Напоминаем, что на нашем специализированном сайте Метеоцентр.Азия вы можете получить высокодетализированные автоматические прогнозы погоды по пунктам России, СНГ и мира в авиационном формате (включающие направление и скорость ветра, видимость, явления погоды, количество и форму облачности, нижнюю и верхнюю границу облачности).

Рекомендуем: Люлька или люлька переноска.

Погода Северо-Курильск - сегодня

Время (UTC), дата Ветер
(°,м/с) 
Видим.   Явления Облачность Т
(°С)
Тd
(°С)
f(%) Тe
(°С)
Pmin
(гПа)
dP
(гПа)
Po
(мм)
O2
(г/м3)
Тmin Tmax R s Состояние
почвы
00 18.07.17 350 (С) 2-4{05}  40000 м    8/5 1000 м верхняя 
[Cu Sc|Cc]
+15.9 +9 64 +17  1008.2  0.7  754  286           
03 18.07.17 020 (С) 3-4{05}  50000 м    8/3 1000 м средняя 
[Sc|Ac trans]
+16.4 +7.3 55 +17  1008.2  0.1  754  285           
06 18.07.17 130 (ЮВ) 2-3{05}  50000 м    6/4 1000 м средняя 
[Cu Sc|Ac lent]
+11.8 +8.8 82 +12  1009.4  755  290           
09 18.07.17 тихо () {04}  40000 м    8/8 1000 м 
[Sc]
+11.2 +9 86 +11  1010.3  0.9  756  291    +17       
12 18.07.17 тихо () {03}  0500 м  туман  ?/?  
+9 +7.9 93 +9  1010.9  0.7  756  294           
15 18.07.17 350 (С) 1-2{02}  4000 м  дымка{туман}  10/10 100 м 
[St]
+9.1 +8.2 94 +10  1011.3  0.3  756  293           
18 18.07.17 тихо () {02}  5000 м  дымка{туман}  10/10 100 м 
[St]
+9.3 +8.4 94 +9  1011.5  0.2  756  293           
21 18.07.17 060 (СВ) 1-2{02}  50000 м  {туман}  10/10 1000 м 
[Sc]
+9.9 +8.7 92 +11  1012.9  1.3  758  293  +8.9        влажная 
00 19.07.17 050 (СВ) 1-2{02}  45000 м  {туман}  10/0 средняя 
[Ac As]
+11 +9.2 89 +12  1013.3  0.4  758  292           
03 19.07.17 350 (С) 2-3{03}  45000 м    10/0 средняя 
[Ac As]
+13 +10 82 +14  1013.3  758  290           
06 19.07.17 130 (ЮВ) 2-3{04}  45000 м    10/0 средняя 
[Ac As]
+12 +9.6 85 +12  1014.1  0.8  758  291           
09 19.07.17 210 (ЮЗ) 1-1{04}  35000 м    10/1 1000 м средняя 
[Sc|Ac As]
+10.3 +8.8 90 +11  1015.4  1.3  759  293    +13.8       
12 19.07.17 350 (С) 1-2{03}  4000 м    10/1 1000 м средняя 
[Sc|Ac As]
+9.6 +8.4 92 +11  1016.1  0.7  760  294           
15 19.07.17 тихо () -1{02}  4000 м  дымка  6/6 300 м 
[St]
+8.3 +7.1 92 +8  1017.1  0.9  761  296           
18 19.07.17 тихо () {03}  0500 м  туман  ?/?  
+8.3 +7.4 94 +8  1017.9  0.8  761  296           
21 19.07.17 080 (В) 2-3{03}  0500 м  туман  ?/?  
+9 +8.1 94 +9  1019  1.2  762  296  +7.3        влажная 
00 20.07.17 110 (В) 3-4{04}  0500 м  туман  ?/?  
+9.5 +8.6 94 +9  1019.2  0.2  762  295           
03 20.07.17 030 (СВ) 2-4{05}  22000 м  {туман}  6/0 верхняя 
[Cc]
+12.8 +9.5 80 +13  1018.6  -0.6  762  292           
06 20.07.17 010 (С) 3-5{06}  27000 м  {туман}  8/1 1000 м средняя, верхняя 
[Sc|Ac As|Ci fib]
+12.9 +9.2 78 +13  1018.8  0.2  762  292           
09 20.07.17 050 (СВ) 3-4{07}  1300 м  туман на расстоянии  10/10 50 м 
[St]
+8.7 +7.6 93 +8  1019.4  0.6  762  296    +13       
12 20.07.17 320 (СЗ) 2-3{05}  4000 м    9/5 200 м средняя, верхняя 
[St|Ac trans|Cc]
+8.3 +7.2 93 +8  1019.2  -0.2  762  297           
15 20.07.17 140 (ЮВ) 2-4{06}  4000 м    6/4 300 м верхняя 
[St|Cc]
+8.1 +6.8 91 +8  1018.3  -0.9  762  297           
18 20.07.17 120 (ЮВ) 3-5{08}  1300 м  дымка{туман}  10/10 50 м 
[St]
+8.1 +7.2 94 +7  1017.7  -0.7  761  297           
21 20.07.17 120 (ЮВ) 3-5{09}  1800 м  туман на расстоянии  10/10 50 м 
[St]
+9.4 +8.6 95 +9  1017.9  0.2  761  295  +7.9        влажная 
00 21.07.17 130 (ЮВ) 3-5{05}  0500 м  туман  ?/?  
+10 +8.8 92 +10  1017.4  -0.5  761  294           
Время (UTC), дата Ветер
(°,м/с) 
Видим.   Явления Облачность Т
(°С)
Тd
(°С)
f(%) Тe
(°С)
Pmin
(гПа)
dP
(гПа)
Po
(мм)
O2
(г/м3)
Тmin Tmax R s Состояние
почвы

Для получения пояснительной информации подведите курсор к названию столбца.

ПОГОДА Северо-Курильск - архив

Всё, что Вы хотите узнать о погоде Северо-Курильск - удобно и подробно!

Выберите нужную дату (начиная с 1 января 2015* года) и нажмите кнопку "Найти".
Будут отображены архивные сводки погоды по пункту Северо-Курильск, начиная с указанной даты.


Отображать данные в формате CSV (для использования в таблицах Excel)


Внимание! Наш архив погоды предназначен исключительно для личного некоммерческого использования в познавательных целях. Если Вам необходимы официальные справки о состоянии погоды (для производственных, юридических, коммерческих и т.п. целей), обращайтесь в органы Росгидромета.

*Примечание: данная дата относится к архиву по метеостанциям СССР (Россия, СНГ, Балтия).
Архив по метеостанциям Зарубежной Европы и Азии (кроме Китая) хранится 10 дней, по другим регионам земного шара (Китай, Африка, Америка, Австралия, Океания) - 1 день.

Северо-Курильск - район местоположения метеостанции


Название, широта, долгота, высота метеостанции:
Северо-Курильск 50.7°ш. 156.1°д. 23 м над ур. моря [Российская Федерация]

Дополнительная информация

В oтличие oт бoльшинства пoгoдных сайтoв мы публикуем пoдрoбную метеoинфoрмацию в детальнoм прoфессиoнальнoм фoрмате.

Характеристики температуры и влажнoсти вoздуха измеряются на высoте 2 м в тени вдали oт зданий и деревьев.
Скoрoсть ветра измеряется на высoте 10 м (на урoвне рoста челoвека скoрoсть ветра ниже в 1.5-2 раза). Если метеoстанция нахoдится в гoрoде или в лесу, тo скoрoсть ветра занижена на 2-4 м/с пo сравнению с oткрытым местoм. Скoрoсть ветра над акватoриями крупных рек и oзёр, а также на вершинах хoлмoв на 2-5 м/с выше, чем в oбычных услoвиях.
Атмoсфернoе давление в разных тoчках местнoсти мoжет значительнo oтличаться oт давления на метеoстанции, в зависимoсти oт услoвий рельефа (при пoдъёме на 10 м давление пoнижается примернo на 1 мм рт.ст.).